Location: Caltech
(34.1382°N, 118.1253°W)
Time: 20:30:24
(UTC-08:00)

RS-15 - Visible Passes

Search period start: 22 January 2017 00:00
Search period end: 01 February 2017 00:00
Orbit: 1881 x 2163 km, 64.8° (Epoch: 21 January)

Date Brightness Start Highest point End Pass type
(mag) Time Alt. Az. Time Alt. Az. Time Alt. Az.
22 Jan 9.9 01:15:30 14° NNE 01:15:30 14° NNE 01:16:54 10° NNE visible
22 Jan 9.7 03:23:14 13° NNW 03:24:04 13° N 03:29:31 10° NNE visible
22 Jan 9.8 05:36:07 10° NNW 05:44:12 19° NNE 05:52:08 10° ENE visible
23 Jan 10.1 00:40:37 11° NNE 00:40:37 11° NNE 00:40:58 10° NNE visible
23 Jan 9.7 02:48:21 15° N 02:48:21 15° N 02:53:05 10° NNE visible
23 Jan 9.8 05:00:00 10° NNW 05:06:52 16° NNE 05:13:39 10° NE visible
24 Jan 9.8 02:13:26 15° N 02:13:26 15° N 02:16:56 10° NNE visible
24 Jan 9.8 04:23:40 10° NNW 04:29:22 14° NNE 04:35:04 10° NE visible
25 Jan 9.9 01:38:31 15° N 01:38:31 15° N 01:40:55 10° NNE visible
25 Jan 9.8 03:46:51 10° NNW 03:51:45 13° N 03:56:39 10° NNE visible
25 Jan 9.5 06:00:11 10° NNW 06:10:32 30° NE 06:20:33 10° E visible
26 Jan 10.0 01:03:35 13° NNE 01:03:35 13° NNE 01:04:58 10° NNE visible
26 Jan 9.8 03:11:19 12° NNW 03:14:05 13° N 03:18:50 10° NNE visible
26 Jan 9.7 05:24:15 10° NNW 05:33:38 24° NE 05:42:46 10° E visible
27 Jan 10.1 00:28:38 11° NNE 00:28:38 11° NNE 00:29:02 10° NNE visible
27 Jan 9.8 02:36:22 13° N 02:36:27 13° N 02:41:47 10° NNE visible
27 Jan 9.8 04:48:16 10° NNW 04:56:32 20° NNE 05:04:37 10° ENE visible
28 Jan 9.9 02:01:24 14° N 02:01:24 14° N 02:05:17 10° NNE visible
28 Jan 9.9 04:12:11 10° NNW 04:19:13 16° NNE 04:26:10 10° ENE visible
28 Jan 9.0 06:24:10 10° NNW 06:36:01 48° NE 06:47:19 10° SE visible
29 Jan 9.9 01:26:26 14° N 01:26:26 14° N 01:29:06 10° NNE visible
29 Jan 9.9 03:35:53 10° NNW 03:41:45 14° NNE 03:47:35 10° NE visible
29 Jan 9.3 05:48:15 10° NNW 05:59:30 38° NE 06:10:18 10° ESE visible
29 Jan 9.7 20:07:50 10° SSE 20:07:57 10° SSE 20:07:57 10° SSE visible
29 Jan10.222:43:43NNE22:43:43NNE22:15:46SWvisible
30 Jan 10.0 00:51:26 13° N 00:51:26 13° N 00:53:04 10° NNE visible
30 Jan 9.9 02:59:11 10° NNW 03:04:09 13° N 03:09:07 10° NNE visible
30 Jan 9.5 05:12:19 10° NNW 05:22:49 31° NE 05:32:56 10° E visible
30 Jan 9.6 19:33:56 10° SE 19:34:05 10° SE 19:34:05 10° SE visible
30 Jan 9.8 21:40:56 10° SSW 21:41:55 14° SSW 21:41:55 14° SSW visible
31 Jan 10.1 00:16:26 12° NNE 00:16:26 12° NNE 00:17:06 10° NNE visible
31 Jan 9.9 02:24:10 12° NNW 02:26:29 13° N 02:31:13 10° NNE visible
31 Jan 9.7 04:36:24 10° NNW 04:45:55 25° NE 04:55:12 10° E visible
31 Jan 9.3 21:05:04 10° SSW 21:08:11 22° SSW 21:08:11 22° SSW visible
